Overview Statistics Trail Chart Weather Telemetry Raw packets
 

This is the latest recevied weather packets stored in our database for station/object KV4OP. If no packets are shown the sender has not sent any weather packets the latest 10 day(s).

<< 2 3 4 5 6 7 8 >>
Time Temp. Humidity Pressure Rain* Wind** Luminosity Snow
1788632411 33.33° C 73% 1013.2 hPa 0 mm - - -
1788632104 33.33° C 72% 1013.3 hPa 0 mm - - -
1788631803 34.44° C 70% 1013.4 hPa 0 mm - - -
1788631504 34.44° C 71% 1013.4 hPa 0 mm - - -
1788631212 33.89° C 74% 1013.3 hPa 0 mm - - -
1788630903 33.89° C 73% 1013.5 hPa 0 mm - - -
1788630603 33.89° C 73% 1013.6 hPa 0 mm - - -
1788630304 33.89° C 73% 1013.6 hPa 0 mm - - -
1788630012 33.89° C 73% 1013.8 hPa 0 mm - - -
1788629704 33.33° C 72% 1013.8 hPa 0 mm - - -
1788629404 33.89° C 71% 1013.9 hPa 0 mm - - -
1788629103 33.89° C 74% 1014.1 hPa 0 mm - - -
1788628812 33.33° C 73% 1014.2 hPa 0 mm - - -
1788628504 33.89° C 73% 1014.2 hPa 0 mm - - -
1788628203 33.33° C 72% 1014.3 hPa 0 mm - - -
1788627904 33.33° C 71% 1014.3 hPa 0 mm - - -
1788627615 33.33° C 72% 1014.3 hPa 0 mm - - -
1788627303 32.78° C 73% 1014.5 hPa 0 mm - - -
1788627003 32.78° C 73% 1014.6 hPa 0 mm - - -
1788626704 32.78° C 75% 1014.8 hPa 0 mm - - -
1788626413 33.33° C 76% 1014.9 hPa 0 mm - - -
1788626104 32.78° C 75% 1014.9 hPa 0 mm - - -
1788625803 31.67° C 77% 1015 hPa 0 mm - - -
1788625503 31.67° C 76% 1015 hPa 0 mm - - -
1788625212 32.78° C 75% 1015.1 hPa 0 mm - - -

* Rain latest hour (hover to see other rain measurements)
** Current wind speed in m/s (hover to see current wind gust speed)